STARLINK-32866, 62858

Orbit data source: Space-Track

STARLINK-32866, 62858 is a payload satellite owned by SpaceX/Seattle (US) in LEO that was launched on Sat, 01 Feb 2025 UTC via an FALCON 9 launch vehicle from the Air Force Western Test Range (AFWTR). Payload-class satellites include a variety of spacecraft equipped with specific instruments for various scientific and technological missions. These include communications satellites like Starlink; space stations such as the ISS; scientific satellites like the Hubble; Earth observation satellites from companies like Planet Labs, Umbra, and HawkEye 360; GPS; miniature CubeSats for education and research; and military/defense satellites.

Loading next visibility...
Identifier
62858, 2025-022E
Orbit
LEO
Country
Flag of USUS
Related business
Manufacturer
SpaceX/Seattle
Mission
Operational Commercial Communications
Bus & Motor
STARLINK V2M, Unknown motor
Mass
730 kg wet, ~700 kg dry
Launch date (UTC)
2025-02-01 (1 year ago)
Launch vehicle
FALCON 9
Launch site
Air Force Western Test Range (AFWTR)
Object type
Payload
Rocket body
Debris
Shape & HBR
Box + 2 Pan, 17.7 m
Radar Cross Section
33.884 m², Large (>1 m²)

Expand to show TLE details & history
Last TLE update: 8 hours ago

TLE from 8 hours ago
0 STARLINK-32866
1 62858U 25022E   26036.81464103  .00017753  00000-0  61018-3 0  9996
2 62858  53.1578 277.4016 0001234  52.1219 307.9894 15.30194596 57024
Epoch: 2026-02-05T19:33Z
TLE epoch observation values (Epoch: 2026-02-05T19:33:04.984Z)
Latitude
0.00002°
Longitude
-151.83062°
Altitude
475.61 km
Speed
7.63 km/s
True Right ascension
18h 29m 36s
True Declination
0° 00' 00"
Sunlit
Object was in daylight at epoch
Visualization orbit readout
Latitude
Unknown
Longitude
Unknown
Altitude
Unknown
Speed
Unknown
Apparent Right ascension
Unknown
Apparent Declination
Unknown
Sunlit
N/A
Visualization observer readout
Local Sidereal Time
06:06:44
Azimuth
Unknown
Elevation
Unknown
Doppler factor
Unknown
Orbital elements
Apogee altitude
476.334 km
Perigee altitude
474.642 km
Semi-major axis
6,853.625 km
Eccentricity
0.00012
Inclination
53.1578°
RAAN
277.4016°
Arg. of periapsis
52.1219°
True anomaly
307.97825°
Mean anomaly
307.9894°
Eccentric anomaly
307.98383°
Mean motion
3.82528 °/min
Orbital period
94.11 mins
BSTAR
0.00061018
Loading maneuver chart data...
Computing Atmospheric mass density...
Loading historical data...
Loading historical data...
Loading historical data...
Loading historical data...
Loading historical data...
Loading historical data...
Loading historical data...

Documentation

Showing up to 5 results
|